Content
SEND FEEDBACK

Daily
Averages
Monthly
Summary
Brazil

MACAE, RIO DE JANEIRO


Home > South America > Brazil > Rio De Janeiro
Elevation: 7 feet     Latitude: 22 21S     Longitude: 041 46W

WEATHER
 
SELECT A DAY
Number of Records: 103,666;   Date Range: 6/30/96 - 12/21/14
 
SHARE

PRINT THIS DATA

[ ← Previous Day ]
WEATHER ALMANAC - JANUARY 31, 2013
[ Next Day → ]
[ °C ]   °F
Weather ElementAverageHighLow
Temperature79.4 °F87.8 °F (9:00 am)71.6 °F (4:00 am)
Dewpoint74.7 °F77 °F (8:00 am)71.6 °F (1:00 am)
Humidity86 %100 % (4:00 am)70 % (9:00 am)
Barometer27.32 in29.95 in (1:00 am) (7:00 pm)
Wind Speed5.2 mph10.4 mph (12:00 pm)
Weather ElementAverage
Visibility5 mi
Wind DirectionSSW (209.6 °)

Weather ElementTotal
Precipitation---
Cooling Degree Days14.7 (Base 65)
Growing Degree Days29.7 (Base 50)
Averaged from 23 records on January 31, 2013
WEATHER CONDITIONS BREAKOUT
WIND DIRECTION BREAKOUT
WEATHER BY HOUR - JANUARY 31, 2013
[ °C ]   °F
Local TimeTemperatureDewpointHumidityBarometerVisibilityWind DirectionWind SpeedGust SpeedPrecipitationEventsConditions
1:00 AM73.4 °F71.6 °F94 %29.95 in3.1 miWNW (300°)4.6 mphRainLight Rain
2:00 AM73.4 °F71.6 °F94 %29.95 in3.7 miWNW (300°)2.3 mphOvercast
3:00 AM73.4 °F71.6 °F94 %29.92 in5.0 miNW (310°)4.6 mphOvercast
4:00 AM71.6 °F71.6 °F100 %29.92 in5.0 miNW (320°)2.3 mphOvercast
5:00 AM73.4 °F71.6 °F94 %29.92 in1.2 miNNW (340°)2.3 mphRainLight Rain
6:00 AM71.6 °F71.6 °F100 %29.89 in5.0 miWNW (300°)1.2 mphMostly Cloudy
7:00 AM73.4 °F71.6 °F94 %29.92 in6.2 miNW (320°)2.3 mphMostly Cloudy
8:00 AM78.8 °F77.0 °F94 %29.92 inNW (320°)3.5 mphClear
9:00 AM87.8 °F77.0 °F70 %29.92 inSW (230°)3.5 mphClear
10:00 AM86.0 °F75.2 °F70 %29.95 inSouth (170°)6.9 mphClear
11:00 AM86.0 °F75.2 °F70 %29.95 in6.2 miSouth (180°)6.9 mphPartly Cloudy
12:00 PM84.2 °F77.0 °F79 %29.95 in6.2 miSouth (190°)10.4 mphScattered Clouds
1:00 PM84.2 °F75.2 °F74 %29.95 in6.2 miSSE (160°)6.9 mphMostly Cloudy
2:00 PM84.2 °F75.2 °F74 %29.92 in6.2 miSE (140°)9.2 mphMostly Cloudy
3:00 PM84.2 °F75.2 °F74 %29.92 in6.2 miSSE (150°)5.8 mphMostly Cloudy
4:00 PM84.2 °F75.2 °F74 %29.89 in6.2 miSouth (180°)8.1 mphMostly Cloudy
5:00 PM82.4 °F75.2 °F79 %29.89 in6.2 miSSE (160°)5.8 mphMostly Cloudy
6:00 PM80.6 °F75.2 °F84 %29.89 in6.2 miSSE (160°)6.9 mphMostly Cloudy
7:00 PM78.8 °F75.2 °F89 %29.89 in3.7 miSE (130°)5.8 mphOvercast
8:00 PM78.8 °F77.0 °F94 %29.89 in4.3 miESE (120°)5.8 mphOvercast
9:00 PM78.8 °F77.0 °F94 %29.92 in5.0 miESE (110°)6.9 mphThunderstormThunderstorm
10:00 PM78.8 °F77.0 °F94 %5.0 miESE (110°)4.6 mphRain-ThunderstormLight Thunderstorms and Rain
11:00 PM78.8 °F77.0 °F94 %3.7 miESE (120°)3.5 mphThunderstormThunderstorm
Hourly data recorded from SBME, located miles away from Macae, Rio De Janeiro







STORIES FROM OUR PARTNERS